Location: Ellerstadt
(49.4644°N, 8.2615°E)
Time: 03:08:20
(UTC+00:00)

SL-08 RB Rocket - Pass Details

Date: 03 March 2021
Orbit: 647 x 683 km, 97.8° (Epoch: 11 April)

Event Time Altitude Azimuth Distance (km) Brightness Sun altitude
Rises 18:50:45 0° 175° (S) 2,966 6.9 -16.6°
Reaches altitude 10° 18:52:59 10° 179° (S) 2,064 6.1 -17.0°
Maximum altitude 18:57:25 59° 259° (W) 769 4.3 -17.7°
Drops below altitude 10° 19:01:58 10° 340° (NNW) 2,103 6.7 -18.4°
Sets 19:04:15 0° 344° (NNW) 3,027 7.5 -18.8°
